[[{"header":{"parameterUnit":"m.s-1","parameterCategory":1,"la1":30.2991,"la2":30.254,"lo1":-89.0895,"lo2":-89.0444,"dy":0.0017,"dx":0.0017,"nx":28,"ny":28,"refTime":"2026-02-18T03:00:00:Z","depth":0,"parameterNumber":2,"parameterNumberName":"U-component_of_WINDS"},"data":[0,0,0,0,0,0,0,0,0,0,0,0,0,0,0,0,0,0,0,0,0,0,0,0,0,0,0,0,0,0,0,0,0,0,0,0,0,0,0,0,0,0,0,0,0,0,0,0,0,0,0,0,0,0,0,0,0,0,-1.0885,-1.0884,0,-1.0824,-1.0823,-1.0823,-1.0785,-1.0785,-1.0785,-1.0785,-1.0719,-1.0718,-1.0716,0,0,0,0,0,0,0,0,0,0,0,0,0,-1.0966,-1.0965,-1.0885,-1.0884,-1.0884,-1.0824,-1.0823,-1.0822,-1.0785,-1.0785,-1.0785,-1.0784,-1.072,-1.0718,-1.0716,0,0,0,0,0,0,0,0,0,0,0,0,0,-1.0921,-1.0965,-1.0885,-1.0858,-1.0855,-1.0824,-1.0823,-1.0822,-1.0785,-1.0785,-1.0785,-1.0784,-1.072,-1.0718,-1.0716,-1.0707,0,0,-1.0709,-1.0708,0,0,0,0,0,0,0,0,-1.0923,-1.0918,-1.0863,-1.086,-1.0856,-1.0812,-1.0828,-1.0783,-1.0785,-1.0812,-1.0784,-1.0784,-1.075,-1.0745,-1.0734,-1.0704,-1.0701,-1.0708,-1.0707,-1.0706,-1.0705,0,0,0,0,0,0,0,-1.0927,-1.092,-1.0861,-1.0862,-1.0858,-1.0848,-1.0841,-1.0819,-1.0783,-1.0809,-1.0806,-1.08,-1.0748,-1.0737,-1.0733,-1.07,-1.0708,-1.0706,-1.0705,-1.0704,-1.0657,-1.0657,0,0,0,0,0,0,-1.0935,-1.0923,-1.0863,-1.0859,-1.089,-1.0846,-1.0839,-1.0826,-1.0783,-1.0776,-1.08,-1.0798,-1.0741,-1.0735,-1.073,-1.0715,-1.0706,-1.0704,-1.0702,-1.0657,-1.0657,-1.0657,0,0,0,0,0,0,-1.0936,-1.093,-1.0865,-1.089,-1.0881,-1.0845,-1.0832,-1.0825,-1.0814,-1.0776,-1.0769,-1.0795,-1.074,-1.0733,-1.0713,-1.0713,-1.0703,-1.0701,-1.0656,-1.0657,-1.0657,-1.0687,0,0,0,0,0,0,-1.0939,-1.093,-1.0928,-1.0891,-1.088,-1.085,-1.0832,-1.0824,-1.081,-1.0807,-1.077,-1.0763,-1.074,-1.0716,-1.071,-1.0709,-1.0699,-1.0656,-1.0657,-1.0657,-1.0686,-1.0688,-1.069,0,0,0,0,0,-1.0942,-1.0938,-1.0928,-1.0921,-1.0876,-1.085,-1.0844,-1.0818,-1.081,-1.0806,-1.0782,-1.0765,-1.0714,-1.0715,-1.0707,-1.0706,-1.0656,-1.0656,-1.0657,-1.0685,-1.0688,-1.069,0,0,0,0,0,0,-1.0976,-1.0933,-1.0921,-1.0905,-1.0882,-1.0844,-1.0838,-1.0822,-1.0799,-1.0797,-1.0765,-1.0757,-1.0739,-1.072,-1.0722,-1.0694,-1.0683,-1.0682,-1.0707,-1.0709,-1.0711,-1.0716,-1.0697,0,0,0,0,0,-1.0982,-1.0965,-1.0928,-1.0918,-1.0907,-1.0875,-1.0863,-1.0844,-1.0818,-1.0808,-1.0782,-1.0756,-1.0734,-1.0721,-1.0699,-1.0683,-1.0673,-1.0678,-1.068,-1.0682,-1.0682,-1.067,-1.0671,-1.0658,-1.0658,-1.0658,0,0,-1.0993,-1.0968,-1.0959,-1.0924,-1.0904,-1.0886,-1.0867,-1.0849,-1.0835,-1.0805,-1.0783,-1.0764,-1.0733,-1.0714,-1.0705,-1.0698,-1.0683,-1.0683,-1.0685,-1.0683,-1.0671,-1.0672,-1.0673,-1.0658,-1.0658,-1.0658,0,0,-1.1005,-1.0985,-1.0973,-1.0953,-1.0923,-1.0901,-1.0898,-1.0863,-1.0849,-1.0827,-1.0803,-1.0786,-1.0749,-1.0728,-1.0712,-1.0715,-1.0697,-1.0708,-1.072,-1.0709,-1.071,-1.0711,-1.071,-1.0711,-1.0708,-1.0708,-1.0708,0,-1.1023,-1.0997,-1.0969,-1.0953,-1.0938,-1.091,-1.0897,-1.0878,-1.0842,-1.0831,-1.0825,-1.0777,-1.0755,-1.073,-1.073,-1.0719,-1.0714,-1.0712,-1.0712,-1.0713,-1.0713,-1.0712,-1.0712,-1.0709,-1.0709,-1.0709,-1.0709,0,-1.102,-1.1001,-1.0996,-1.0962,-1.0945,-1.0931,-1.09,-1.0887,-1.087,-1.0849,-1.0826,-1.0798,-1.0769,-1.0762,-1.0745,-1.0734,-1.073,-1.0719,-1.0707,-1.0716,-1.0715,-1.0714,-1.0711,-1.0711,-1.071,-1.071,0,0,-1.1051,-1.1002,-1.1,-1.0983,-1.0947,-1.0932,-1.0916,-1.0888,-1.0876,-1.0852,-1.0836,-1.0806,-1.0794,-1.0776,-1.0756,-1.0747,-1.0749,-1.0736,-1.0734,-1.0738,-1.0734,-1.0742,-1.0743,-1.0737,-1.0737,-1.0737,-1.0736,0,-1.1057,-1.1027,-1.1001,-1.098,-1.0962,-1.0935,-1.092,-1.0896,-1.0875,-1.0856,-1.0833,-1.0811,-1.0798,-1.0787,-1.0776,-1.0751,-1.0747,-1.0751,-1.0721,-1.072,-1.0729,-1.0742,-1.0751,-1.0752,-1.0735,-1.0735,-1.0735,0,-1.106,-1.1036,-1.1014,-1.0978,-1.0969,-1.0957,-1.0929,-1.0911,-1.0882,-1.0868,-1.0848,-1.0827,-1.0806,-1.0797,-1.0768,-1.0771,-1.0757,-1.0743,-1.0742,-1.0738,-1.0728,-1.0737,-1.0751,-1.0751,-1.0734,-1.0734,-1.0734,0,-1.1083,-1.1047,-1.1028,-1.1015,-1.0973,-1.0964,-1.0947,-1.0917,-1.0902,-1.0877,-1.0866,-1.0839,-1.0824,-1.0803,-1.0774,-1.077,-1.0747,-1.0736,-1.0734,-1.0734,-1.073,-1.073,-1.0741,-1.0722,-1.0722,-1.0722,-1.0722,0,-1.1092,-1.1079,-1.1038,-1.1026,-1.101,-1.098,-1.0965,-1.0944,-1.0918,-1.0901,-1.0876,-1.086,-1.0824,-1.0804,-1.0781,-1.076,-1.0753,-1.074,-1.0734,-1.0742,-1.0743,-1.0732,-1.0731,-1.0722,-1.0722,-1.0722,-1.0722,0,-1.1116,-1.1088,-1.1065,-1.1028,-1.1018,-1.1007,-1.0974,-1.0961,-1.0939,-1.0918,-1.0911,-1.0876,-1.085,-1.082,-1.0785,-1.0769,-1.0749,-1.0741,-1.0759,-1.0756,-1.0755,-1.0755,-1.0758,-1.0756,-1.074,-1.074,-1.074,0,-1.1122,-1.1112,-1.1072,-1.106,-1.1042,-1.1022,-1.1006,-1.0976,-1.096,-1.0925,-1.0916,-1.0889,-1.0865,-1.0825,-1.0796,-1.0768,-1.0758,-1.0761,-1.0754,-1.0762,-1.0757,-1.0758,-1.0756,-1.0763,-1.0763,-1.0764,-1.0764,0,-1.1137,-1.1123,-1.1102,-1.1075,-1.1057,-1.1034,-1.101,-1.1001,-1.0965,-1.0949,-1.0923,-1.0904,-1.0868,-1.0841,-1.0809,-1.0789,-1.077,-1.0767,-1.0764,-1.0772,-1.0782,-1.0775,-1.0764,-1.0766,-1.0766,-1.0766,-1.0766,-1.0766,-1.1151,-1.114,-1.111,-1.1087,-1.1066,-1.1044,-1.1029,-1.1005,-1.0983,-1.0952,-1.0935,-1.0909,-1.0879,-1.0834,-1.0815,-1.0793,-1.0787,-1.0784,-1.0783,-1.0782,-1.0784,-1.0787,-1.0787,-1.0787,-1.0787,-1.0787,-1.0787,0,-1.1163,-1.1143,-1.1122,-1.1089,-1.107,-1.1055,-1.1027,-1.1012,-1.099,-1.0963,-1.0941,-1.091,-1.0883,-1.0851,-1.0822,-1.0811,-1.0801,-1.0804,-1.0804,-1.0799,-1.0792,-1.0797,-1.0812,-1.0812,-1.0812,-1.0812,-1.0812,-1.0812,-1.1167,-1.1147,-1.113,-1.1098,-1.1077,-1.1052,-1.1038,-1.1017,-1.0995,-1.0963,-1.094,-1.092,-1.0891,-1.0859,-1.0833,-1.0825,-1.0814,-1.082,-1.0808,-1.0802,-1.08,-1.0798,-1.0802,-1.0818,-1.0818,-1.0817,-1.0817,-1.0817]},{"header":{"parameterUnit":"m.s-1","parameterCategory":1,"la1":30.2991,"la2":30.254,"lo1":-89.0895,"lo2":-89.0444,"dy":0.0017,"dx":0.0017,"nx":28,"ny":28,"refTime":"2026-02-18T03:00:00:Z","depth":0,"parameterNumber":3,"parameterNumberName":"V-component_of_WINDS"},"data":[0,0,0,0,0,0,0,0,0,0,0,0,0,0,0,0,0,0,0,0,0,0,0,0,0,0,0,0,0,0,0,0,0,0,0,0,0,0,0,0,0,0,0,0,0,0,0,0,0,0,0,0,0,0,0,0,0,0,4.8081,4.8083,0,4.8317,4.832,4.8323,4.8376,4.8375,4.8373,4.8371,4.8617,4.8625,4.8633,0,0,0,0,0,0,0,0,0,0,0,0,0,4.768,4.7687,4.808,4.8083,4.8086,4.8317,4.832,4.8323,4.8377,4.8375,4.8373,4.8371,4.8615,4.8624,4.8634,0,0,0,0,0,0,0,0,0,0,0,0,0,4.7879,4.7689,4.808,4.814,4.8148,4.8316,4.832,4.8324,4.8377,4.8375,4.8372,4.837,4.8612,4.8623,4.8635,4.8761,0,0,4.8673,4.8678,0,0,0,0,0,0,0,0,4.7867,4.7894,4.8129,4.8137,4.8146,4.8315,4.8269,4.8471,4.8378,4.829,4.8371,4.8369,4.8519,4.8539,4.8589,4.8772,4.8783,4.8674,4.8681,4.8686,4.869,0,0,0,0,0,0,0,4.7854,4.7884,4.8174,4.8132,4.8142,4.8158,4.8183,4.8308,4.8416,4.8298,4.8302,4.8329,4.8523,4.8577,4.8595,4.8786,4.8673,4.8684,4.8692,4.8696,4.9091,4.9094,0,0,0,0,0,0,4.7829,4.7872,4.8167,4.8181,4.7997,4.8167,4.8196,4.8263,4.8415,4.8435,4.8331,4.8331,4.8557,4.8581,4.8604,4.8765,4.8686,4.8697,4.8704,4.9087,4.9091,4.9095,0,0,0,0,0,0,4.782,4.7854,4.8157,4.8028,4.8068,4.8177,4.8252,4.8269,4.8323,4.844,4.846,4.8366,4.8556,4.8587,4.8722,4.8774,4.8703,4.8714,4.9084,4.9089,4.9093,4.9085,0,0,0,0,0,0,4.7808,4.7851,4.7898,4.8029,4.8074,4.827,4.8255,4.8275,4.8343,4.8345,4.8478,4.8497,4.8557,4.8704,4.8734,4.8789,4.8724,4.908,4.9086,4.9091,4.9081,4.9089,4.9095,0,0,0,0,0,4.7793,4.7886,4.79,4.7935,4.8135,4.8273,4.8299,4.8364,4.8347,4.8397,4.8473,4.8493,4.8762,4.8717,4.8752,4.8811,4.9077,4.9084,4.9091,4.9078,4.9087,4.9095,0,0,0,0,0,0,4.7759,4.7904,4.7921,4.8058,4.8153,4.8281,4.8346,4.8371,4.8474,4.8471,4.8549,4.8579,4.8711,4.8774,4.8721,4.8944,4.8919,4.8934,4.8898,4.8907,4.8914,4.8898,4.8734,0,0,0,0,0,4.7767,4.7865,4.7987,4.8096,4.8142,4.8236,4.8298,4.8341,4.8442,4.8483,4.8568,4.8667,4.8775,4.8844,4.8949,4.909,4.9122,4.9148,4.9155,4.916,4.9173,4.9258,4.9272,4.9118,4.9118,4.9118,0,0,4.7785,4.7876,4.7933,4.8091,4.817,4.8272,4.8269,4.8376,4.8455,4.8499,4.8634,4.87,4.8816,4.8956,4.9022,4.9013,4.9223,4.9169,4.9173,4.9183,4.9266,4.9281,4.9294,4.9123,4.9122,4.9121,0,0,4.7871,4.7948,4.805,4.8129,4.8248,4.831,4.8334,4.846,4.8506,4.8642,4.8679,4.8773,4.8955,4.9038,4.9104,4.9225,4.9249,4.9256,4.9295,4.9377,4.9389,4.94,4.9448,4.9464,4.9268,4.9268,4.9268,0,4.7879,4.8033,4.8099,4.8207,4.8277,4.8322,4.8428,4.8501,4.8648,4.8697,4.8684,4.8917,4.8998,4.916,4.919,4.924,4.9274,4.9243,4.9381,4.9393,4.9405,4.9452,4.9469,4.9269,4.9268,4.9268,4.9268,0,4.804,4.8147,4.8215,4.8357,4.8434,4.854,4.8624,4.8695,4.8731,4.8796,4.8936,4.9035,4.9163,4.9204,4.9239,4.9373,4.9365,4.9365,4.9343,4.9419,4.9464,4.9482,4.9269,4.9269,4.9269,4.9269,0,0,4.8111,4.829,4.8314,4.8381,4.8516,4.8602,4.8711,4.8836,4.8897,4.8997,4.9094,4.9248,4.9252,4.9326,4.9372,4.9442,4.9538,4.9436,4.944,4.9456,4.9698,4.9699,4.9718,4.9554,4.9557,4.956,4.969,0,4.8218,4.8414,4.8478,4.8642,4.8744,4.8789,4.8885,4.898,4.9044,4.9141,4.9211,4.9322,4.9315,4.9361,4.9433,4.9511,4.9589,4.9502,4.9649,4.9653,4.9622,4.9741,4.9743,4.986,4.9707,4.971,4.9712,0,4.8368,4.8472,4.8646,4.8773,4.8818,4.8903,4.9026,4.9117,4.9227,4.9268,4.9353,4.9394,4.9513,4.9482,4.965,4.959,4.9653,4.9701,4.9707,4.9727,4.969,4.9768,4.9898,4.9917,4.974,4.9738,4.9736,0,4.8409,4.8592,4.8721,4.8776,4.8926,4.8986,4.9051,4.9158,4.9231,4.9337,4.9386,4.9505,4.9571,4.9664,4.9737,4.9707,4.9901,4.9874,4.9942,4.9941,4.9984,4.9981,5.013,5.0017,5.0017,5.0016,5.0016,0,4.8523,4.863,4.8742,4.8822,4.8944,4.9017,4.9136,4.9204,4.93,4.9396,4.9441,4.9531,4.962,4.9723,4.9781,4.9914,4.9942,4.9982,4.9997,4.9981,4.9976,5.0026,5.0022,5.0021,5.002,5.0019,5.0018,0,4.859,4.8669,4.8815,4.8945,4.898,4.9065,4.9177,4.9259,4.9324,4.9446,4.9478,4.9582,4.9705,4.9787,4.9943,4.9983,5.013,5.014,5.0093,5.0101,5.0166,5.0161,5.0356,5.0388,5.0249,5.025,5.0251,0,4.866,4.8743,4.8883,4.8951,4.9017,4.9124,4.9199,4.9275,4.9351,4.9485,4.9551,4.9677,4.9782,4.9978,5.0069,5.019,5.0207,5.0267,5.0226,5.0208,5.0214,5.021,5.0221,5.0275,5.0276,5.0277,5.0278,0,4.8778,4.8814,4.8919,4.9039,4.9127,4.9226,4.9325,4.9378,4.9471,4.9555,4.9682,4.9764,4.9925,5.0052,5.0182,5.0252,5.0283,5.0289,5.0313,5.0299,5.027,5.0292,5.0116,5.0286,5.0285,5.0284,5.0284,5.0283,4.8852,4.893,4.9042,4.9159,4.9241,4.9333,4.9417,4.9494,4.96,4.9738,4.9776,4.991,5.0022,5.02,5.0272,5.038,5.0374,5.0405,5.0415,5.0423,5.0426,5.0249,5.0403,5.0403,5.0403,5.0403,5.0403,0,4.8976,4.9051,4.9157,4.9295,4.9388,4.9407,4.9518,4.9596,4.9712,4.9813,4.9917,5.0065,5.0188,5.0289,5.0417,5.0484,5.0502,5.0516,5.0514,5.0531,5.0421,5.0391,5.05,5.05,5.05,5.05,5.05,5.05,4.9052,4.9186,4.9236,4.9413,4.9487,4.9618,4.9681,4.9768,4.9849,5.0012,5.0115,5.018,5.0283,5.0419,5.0535,5.0561,5.0609,5.0621,5.0651,5.0548,5.0538,5.0527,5.0499,5.0629,5.0629,5.0752,5.0753,5.0754]}]]